XTAR-EUR

Last updated on Tue Jul 01 2025 00:02:44 GMT+0000 (Coordinated Universal Time)

1 28542U 05005A 25180.37263192 .00000145 00000+0 00000+0 0 9998 2 28542 3.4244 81.1265 0005002 14.1385 345.5768 1.00270411 74658
UTC large
Height (km)
Speed (km/s)
/
Latitude / Longitude
Inclination (degrees)
Orbital Period (minutes)
Azimuth
Elevation
Range (km)
Doppler Factor

Next 0 passes for location: London (51.5072 / 0.1276)

Sorry there are no passes over London.